www.pogodaiklimat.ru

Погода и климат >> Архив погоды >> Россия >> Якутия >> Олекминск


АРХИВ ПОГОДЫ в Олекминске

Время (UTC), дата Ветер
(напр.,м/с)
 
Видим.   Явления Облачность Т
(С)
Тd
(С)
f
(%)
Тe
(С)
Тes
(С)
Комфортность P
(гПа)
Po
(гПа)
Тmin
(С)
Tmax
(С)
R
(мм)
R24
(мм)
S
(см)
21 12.05 В 2 50 км 10/3 600 м
[Sc Ac trans Ci fib]
+3.2 -5.5 53 +1 +1 1007.4 979.2
00 13.05 В 2 50 км 8/0
[Ac trans Ci fib]
+8.9 -5.0 37 +8 +12 1006.2 978.6 +1.7
03 13.05 ЮВ 3 50 км 10/0
[Ci fib]
+15.8 -5.1 23 +16 +24 1003.6 976.9
06 13.05 Ю 4 50 км 10/4 600 м
[Cu hum Ci fib]
+19.7 -7.9 15 +19 +23 1001.0 974.7
09 13.05 Ю 3 50 км 10/4 1000 м
[Sc Ci fib]
+20.3 -7.3 15 +20 +22 1000.2 973.9
12 13.05 ЮВ 2 50 км 10/5 600 м
[Sc Ac trans Ci fib]
+16.4 -5.2 22 +17 +17 1001.2 974.5 +20.5
15 13.05 З 4 50 км 10/3 1000 м
[Sc Ac trans Ci fib]
+11.3 -4.0 34 +10 +10 1004.0 976.7
18 13.05 штиль 0 50 км 10/3 600 м
[Sc Ac trans Ci fib]
+5.5 -2.6 56 +5 +5 1005.5 977.7
21 13.05 СВ 1 50 км 10/0
[Ac trans Ci fib]
+6.4 -2.0 55 +6 +6 1005.5 977.7
00 14.05 В 3 50 км 10/0
[Ci fib]
+12.5 -1.5 38 +11 +16 1005.2 977.6 +1.7
03 14.05 нст 1 50 км 10/0
[Ci fib]
+14.9 -3.8 27 +16 +27 1004.1 977.2
06 14.05 ЮЗ 3 50 км 10/5 1000 м
[Cu hum Ci fib]
+18.2 -5.3 20 +18 +22 1003.1 976.6
09 14.05 З 2 50 км 10/5 1000 м
[Cu hum Ci fib]
+17.8 -4.8 21 +18 +20 1003.1 976.4
12 14.05 СЗ 4 50 км 10/0
[Ci fib]
+15.2 -0.2 35 +14 +14 1003.7 976.8 +19.0
15 14.05 С 4 50 км 10/0
[Ci fib]
+9.6 -1.1 47 +7 +7 1005.8 978.4
18 14.05 С 1 50 км 10/0
[Ci fib]
+4.3 -1.5 66 +3 +3 1006.7 978.7
21 14.05 СВ 2 50 км 10/0
[Ac trans Ci sp]
+4.0 -0.6 72 +1 +2 1005.3 977.4
00 15.05 СВ 1 50 км 10/0
[Ac trans]
+6.3 -0.5 62 +6 +9 1003.9 976.2 +0.5
03 15.05 В 2 50 км 10/4 1000 м
[Sc Ac trans Ci fib]
+10.2 -0.3 48 +9 +13 1001.5 974.2
06 15.05 В 4 50 км 10/3 600 м
[Sc Ac trans Ci fib]
+17.7 +1.7 34 +17 +20 998.1 971.7
09 15.05 В 3 50 км 10/5 600 м
[Sc Ac trans Ci fib]
+20.4 +3.4 33 +21 +22 комфорт 996.7 970.5
12 15.05 СВ 3 50 км 10/3 1000 м
[Sc Ac trans Ci fib]
+15.6 +5.9 52 +15 +15 977.4 970.8 +20.6
15 15.05 СВ 4 50 км 10/0
[Ac trans Ci fib]
+11.0 +5.4 68 +9 +9 998.6 971.5
18 15.05 СВ 3 50 км 10/0
[Ac trans Ci fib]
+8.3 +4.7 78 +6 +6 999.1 971.8
21 15.05 СВ 4 50 км 10/0
[Ci fib]
+8.1 +4.7 79 +5 +5 999.0 971.7
00 16.05 В 4 50 км 10/0
[Ci fib]
+15.6 +4.8 49 +15 +18 998.3 971.7 +7.0
03 16.05 В 3 50 км 10/4 600 м
[Cu hum Ci fib]
+21.2 +4.1 33 +21 +26 комфорт 997.1 970.9
06 16.05 В 4 50 км 10/5 600 м
[Cu hum Ci fib]
+22.1 +1.4 25 +22 +25 комфорт 995.9 969.9
09 16.05 ЮВ 2 50 км 10/5 600 м
[Sc Ci fib]
+22.4 +2.3 27 +22 +24 комфорт 995.3 969.3
12 16.05 СВ 2 50 км 10/3 600 м
[Sc Ci fib]
+20.7 +0.1 25 +21 +21 комфорт 996.2 970.0 +25.0
15 16.05 СВ 2 50 км 10/3 600 м
[Sc Ac trans Ci fib]
+14.5 +0.4 38 +14 +14 996.7 970.0
18 16.05 50 км 10/3 600 м
[Sc Ac trans Ci fib]
+12.5 +3.0 52 996.9 970.0
21 16.05 З 4 50 км 10/4 600 м
[Sc Ac trans Ci fib]
+7.6 +3.6 76 +4 +5 998.3 971.0
00 17.05 З 4 50 км 10/5 600 м
[Cb cap Ac trans Ci fib]
+12.2 +5.3 63 +10 +11 998.5 971.6 +7.4
03 17.05 З 4 50 км 10/5 600 м
[Cb cap Ac trans Ci fib]
+13.5 +5.4 58 +12 +14 998.7 972.0
06 17.05 СЗ 4 50 км гроза без осадков {ливн. осадки} 10/6 600 м
[Cb cap Ac trans]
+11.8 +9.0 83 +10 +11 998.9 972.0
09 17.05 З 4 50 км в посл. час ливневой дождь {гроза} 10/6 600 м
[Cb cap Ac trans Ci fib]
+13.3 +5.4 59 +12 +12 1000.2 973.3
12 17.05 СЗ 5 50 км {гроза, ливн. осадки} 10/6 600 м
[Cb cap Ac trans]
+8.0 +3.3 72 +4 +4 1003.0 975.5 +15.5 0.7
15 17.05 СЗ 5 50 км 10/6 600 м
[Cb cap Ac trans]
+6.6 +3.5 81 +2 +2 1003.8 976.1
18 17.05 СЗ 1 50 км 10/6 600 м
[Cb cap Ac trans]
+6.7 +4.6 86 +6 +6 1004.2 976.5
21 17.05 С 5 50 км 10/8 300 м
[Cb cap Ac trans]
+4.8 +3.8 93 -0 -0 1004.8 976.9
00 18.05 С 5 20 км слаб. ливневой дождь 10/8 300 м
[Cb cap]
+3.6 +1.0 83 -1 -1 1005.5 977.5 +3.6 0.0
03 18.05 С 4 4000 м слаб. ливневой снег 10/10 300 м
[Cb cap]
+1.9 +1.1 94 -3 -3 1007.2 979.0 +1.9
06 18.05 СЗ 3 4000 м слаб. ливневой снег 10/10 300 м
[Cb cap]
+1.8 +1.0 94 -3 -3 1008.3 980.1
09 18.05 С 3 4000 м слаб. ливневой снег 10/10 300 м
[Cb cap]
+0.4 -0.4 94 -4 -4 1010.2 981.8
12 18.05 СЗ 2 4000 м слаб. ливневой снег 10/10 330 м
[Cb cap]
-0.1 -0.4 98 -4 -4 1012.0 983.4 +5.2 6
15 18.05 З 2 10 км слаб. ливневой снег 10/10 330 м
[Cb cap]
-0.5 -0.8 98 -4 -4 1012.7 984.1
18 18.05 СЗ 2 4000 м слаб. ливневой снег 10/10 330 м
[Cb cap]
-0.5 -0.8 98 -4 -4 1013.4 984.8
21 18.05 СЗ 2 4000 м слаб. ливневой снег 10/10 330 м
[Cb cap]
-0.5 -0.8 98 -4 -4 1013.4 984.8
00 19.05 З 3 50 км {ливн. осадки} 10/5 300 м
[St Ac trans Ci fib]
+0.6 -0.5 92 -4 -3 1015.4 986.8 -0.6 6
03 19.05 СЗ 4 50 км 10/4 600 м
[Cu hum Ac trans Ci fib]
+5.0 -2.2 60 +1 +4 1015.4 987.3
06 19.05 СЗ 4 50 км 10/1 1000 м
[Cu hum Ci sp]
+9.8 -5.9 33 +8 +13 1014.5 987.0
09 19.05 З 3 50 км 10/1 1000 м
[Cu hum Ci fib]
+12.0 -7.7 24 +11 +13 1014.1 986.8
12 19.05 нст 1 50 км 6/0
[Ci fib]
+9.8 -7.0 30 +10 +10 1014.4 986.9 +12.2
15 19.05 С 1 50 км 6/0
[Ci fib]
+6.2 -9.1 32 +6 +6 1015.1 987.2
18 19.05 З 2 50 км 8/0
[Ci fib]
-1.3 -5.6 73 -5 -5 1015.6 986.8

 

Местоположение метеостанции Олекминск (Якутия, Россия): широта 60.40 долгота 120.40 высота над уровнем моря 230 м.

В архиве по умолчанию представлена погода в Олекминске за последнюю неделю. Архивные данные за месяц целиком и за предыдущие месяцы, начиная с января 2011 года, Вы можете получить, выбрав интересующий диапазон дат из раскрывающегося списка и нажав кнопку "Ввод!".


*Определитесь, кто Вы:
робот инопланетянин человек

Внимание! Время в таблицах - всемирное. Для получения местного времени необходимо прибавить поправку, которая равна 9 ч.

Смотрите также архив погоды в соседних городах и на ближайших метеорологических станциях:

Погода в Килиере (Якутия, Россия) (86 км)
Погода в Тяне (Якутия, Россия) (159 км)
Погода в Маче (Якутия, Россия) (164 км)
Погода в Джикимде (Якутия, Россия) (170 км)
Погода в Сунтаре (Якутия, Россия) (247 км)
Погода в Перевозе (Иркутская область, Россия) (251 км)
Погода в Исити (Якутия, Россия) (271 км)
Погода в Тонгулахе (Якутия, Россия) (277 км)
Погода в Ленске (Якутия, Россия) (308 км)
Погода в Крестяхе (Якутия, Россия) (310 км)

Пояснения к столбцам:

Ветер - указаны скорость ветра в м/с - средняя за 10 мин, порывы в срок и между сроками (в фигурных скобках) и направление, откуда дует ветер: С - северный, СВ - северо-восточный, В - восточный, ЮВ - юго-восточный, Ю - южный, ЮЗ - юго-западный, З - западный, СЗ - северо-западный.
Видимость - горизонтальная дальность видимости в метрах или километрах. При видимости от 1 до 10 км при отсутствии осадков обычно наблюдается дымка, при ухудшении видимости до 1 км и менее - туман. В сухую погоду видимость может ухудшаться дымом, пылью или мглою.
Явления - указаны атмосферные явления, наблюдавшиеся в срок или в последний час перед сроком; фигурными скобками обозначены явления, наблюдавшиеся между сроками (за 1-3 часа до срока); квадратными скобками обозначены град или гололедные отложения с указанием их диаметра в мм.
Облачность - указаны через наклонную черту общая и нижняя облачность в баллах и высота нижней границы облаков в метрах; квадратными скобками обозначены формы облаков: Ci - перистые, Cs - перисто-слоистые, Cc - перисто-кучевые, Ac - высококучевые, As - высокослоистые, Sc - слоисто-кучевые, Ns - слоисто-дождевые, Cu - кучевые, Cb - кучево-дождевые. Подробнее классификацию облаков см. в Атласе облаков (PDF).
T - Температура воздуха - температура, измеренная на высоте 2 м над землей.
Td - Температура точки росы - температура, при понижении до которой содержащийся в воздухе водяной пар достигнет насыщения.
f - Относительная влажность воздуха - влажноcть воздуха, измеренная на высоте 2 м над землей.
Te - Эффективная температура - температура, которую ощущает одетый по сезону человек в тени. Характеристика душности погоды. При расчете учитывается влияние влажности воздуха и скорости ветра на теплоощущения человека.
Tes - Эффективная температура на солнце - температура, которую ощущает человек, с поправкой на солнечный нагрев. Характеристика знойности погоды. Зависит от высоты солнца над горизонтом, облачности и скорости ветра. Ночью, в пасмурную погоду, а также при ветре 12 м/с и более поправка равна нулю.
P - Атмосферное давление - приведенное к уровню моря атмосферное давление.
Po - Атмосферное давление - измеренное на уровне метеостанции атмосферное давление.
Tmin - Минимальная температура - минимум температуры воздуха на высоте 2 м над землей.
Tmax - Максимальная температура - максимум температуры воздуха на высоте 2 м над землей.
R - Количество осадков - Количество выпавших осадков за период времени, мм. При наведении курсора мыши на число - период времени, за который выпало указанное количество осадков.
R24 - Количество осадков - Количество выпавших осадков за 24 часа, мм.
S - Снежный покров - Высота снежного покрова, см. При наведении курсора мыши на число - состояние снежного покрова и степень покрытия местности в баллах.